Location: Le Domaine
(47.0333°N, 76.5361°W)
Time: 16:20:40
(UTC-05:00)

Explorer 11/Cluster Stage 4 - Pass Details

Date: 18 November 2019
Orbit: 467 x 1259 km, 28.8° (Epoch: 12 December)

Event Time Altitude Azimuth Distance (km) Brightness Sun altitude
Rises 21:54:09 0° 234° (SW) 3,538 - -53.5°
Reaches altitude 10° 21:57:35 10° 215° (SW) 2,751 - -53.9°
Maximum altitude 22:01:45 17° 177° (S) 2,429 - -54.4°
Drops below altitude 10° 22:06:17 10° 140° (SE) 3,061 - -55.0°
Sets 22:10:25 0° 122° (ESE) 4,122 - -55.5°
